Regional Weather Roundup
Issued by NWS

Home | Current Version | Previous Version | Graphics & Text | Print | Product List | Glossary On
Versions: 1 2 3 4 5 6 7 8 9 10 11 12 13 14 15 16 17 18 19 20 21 22 23 24 25 26 27 28 29 30 31 32 33 34 35 36 37 38 39 40 41 42 43 44 45 46 47 48 49 50
000
ASUS43 KIND 032159
RWRIN

WEATHER ROUNDUP FOR INDIANA
NATIONAL WEATHER SERVICE INDIANAPOLIS IN
600 PM EDT FRI JUL 03 2015

NOTE: "FAIR" INDICATES FEW OR NO CLOUDS BELOW 12,000 FEET WITH NO
SIGNIFICANT WEATHER AND/OR OBSTRUCTIONS TO VISIBILITY.

* - STATION DOES NOT REPORT WEATHER SUCH AS PRECIPITATION OR FOG.

+ - STATION NOT QUALITY CONTROLLED BY THE NATIONAL WEATHER SERVICE.
    USE DATA WITH CAUTION...ESPECIALLY DEWPOINT AND RELATIVE
    HUMIDITY OBSERVATIONS.

INZ001>003-010>013-019-020-032300-
NORTHWEST INDIANA

CITY           SKY/WX    TMP DP  RH WIND       PRES   REMARKS
GARY /AIRPORT/ PTSUNNY   72  57  60 N9        29.94F
MONTICELLO +   PTSUNNY   73  63  70 CALM      29.91S
RENSSELAER +   PTSUNNY   73  59  60 N7        29.92S

$$

LMZ046-743>745-032300-
SOUTHERN LAKE MICHIGAN

STATION/POSITION TIME  TEMP    WIND        PRES    WAVE
                       AIR SEA DIR/SP/G            HT
                 (UTC) (F)     (DEG/KT/KT) (MB)    (FT)
BURNS HARBOR     2100   65      30/  7/  9 1014.2F
MICHIGAN CITY    2100   63      10/  4/  4   N/A
5NW MICH CITY    2100   64 65   20/  8/ 10   N/A     1

$$

INZ004-005-014>016-021>024-032300-
NORTH CENTRAL INDIANA

CITY           SKY/WX    TMP DP  RH WIND       PRES   REMARKS
ELKHART        MOSUNNY   75  50  41 NE5       29.93F
GOSHEN         MOSUNNY   73  55  53 VRB5      29.92F
SOUTH BEND     MOSUNNY   76  50  40 CALM      29.93S

$$

INZ006>009-017-018-025>027-032300-
NORTHEAST INDIANA

CITY           SKY/WX    TMP DP  RH WIND       PRES   REMARKS
ANGOLA *+        N/A     75  54  46 NE8       29.92F
FORT WAYNE     PTSUNNY   75  59  57 N9        29.92F

$$

INZ028-029-035-036-043>045-051>053-032300-
WEST CENTRAL INDIANA

CITY           SKY/WX    TMP DP  RH WIND       PRES   REMARKS
CRAWFORDSVL +  PTSUNNY   73  59  61 N7        29.90F
GREENCASTLE +  CLOUDY    73  61  64 NE7       29.89F
LAFAYETTE      PTSUNNY   73  60  63 N8        29.91S
TERRE HAUTE    MOSUNNY   77  66  68 NE13      29.88S

$$

INZ030>032-037>040-046>048-054>057-064-065-032300-
CENTRAL INDIANA

CITY           SKY/WX    TMP DP  RH WIND       PRES   REMARKS
COLUMBUS       PTSUNNY   72  64  78 NE12      29.88F
INDIANAPOLIS   CLOUDY    73  62  68 NE12      29.87S
-EAGLE CREEK   LGT RAIN  73  64  73 N3        29.88F
KOKOMO *+      CLOUDY    72  63  73 E5        29.91S
MT COMFORT *+  MOSUNNY   75  55  50 E8        29.89F
SHELBYVILLE    CLOUDY    72  67  84 E6        29.88F

$$

INZ033-034-041-042-049-050-058-059-032300-
EAST CENTRAL INDIANA

CITY           SKY/WX    TMP DP  RH WIND       PRES   REMARKS
MUNCIE         MOSUNNY   75  62  64 NE10      29.89F

$$

INZ060-061-067>069-081>083-085>088-032300-
SOUTHWEST INDIANA

CITY           SKY/WX    TMP DP  RH WIND       PRES   REMARKS
EVANSVILLE     PTSUNNY   82  70  66 NW8       29.83F HAZE
HUNTINGBURG *+ PTSUNNY   73  70  88 E3        29.85S

$$

INZ062-063-066-070>080-084-089>092-032300-
SOUTH CENTRAL AND SOUTHEAST INDIANA

CITY           SKY/WX    TMP DP  RH WIND       PRES   REMARKS
BLOOMINGTON    CLOUDY    73  65  75 N8        29.88S
MADISON *+     MOSUNNY   73  66  78 N5        29.87S

$$



USA.gov is the U.S. government's official web portal to all federal, state and local government web resources and services.